STARLINK-1776 (46682 NORAD) Tracking and Keplerian Element Data

This shows tracking and keplerian element data for the satellite.

Feedback or suggestion? Click here.




ElementValue
Catalog46682
NameSTARLINK-1776
Epoch Orbit1604
Epoch Day27.25001157
Epoch Year2021
RAAN359.8837
Inclination53.0545
Eccentricity0.0002322
Argument of Perigee58.9573
Mean Anonmoly318.2818
Mean Motion15.0639733
Decay Rate3.56E-05
L11 46682U 20073N 21027.25001157 .00003560 00000-0 25777-3 0 9996
L22 46682 53.0545 359.8837 0002322 58.9573 318.2818 15.06397330 16048

Live tracking and technical data element details for STARLINK-1776 (NORAD 46682). STARLINK-1776 can be tracked NOW for your location showing map with azimuth and elevation plus other details from your city location.

Track the satellite on the map from your city or location and see movement details for azimuth, elevation, latitude, longitude, range, height, and movement on the map or in text.







IsCatalogInMostPopularTable: catalog: 46682, numindb: 33
Update: records affected: 1



GetName: 46682 STARLINK-1776

Hit Count: updated at: Thu, 28 Jan 2021 12:43:33 GMT